Location: Gerlach
(40.6516°N, 119.3568°W)
Time: 14:59:34
(UTC-07:00)

A-11 Canister half - Pass Details

Date: 28 February 2024
Orbit: 1525 x 1683 km, 47.3° (Epoch: 21 April)

Event Time Altitude Azimuth Distance (km) Brightness Sun altitude
Rises 21:07:54 0° 258° (WSW) 4,776 12.2 -38.0°
Reaches altitude 10° 21:11:04 10° 261° (W) 3,771 11.5 -38.5°
Enters shadow 21:20:21 67° 337° (NNW) 1,654 9.1 -40.0°
